Tracking 31027 objects as of 19-Jul-2025
HD Live streaming from Space Station
objects crossing your sky now

DELTA 1 DEB

Track DELTA 1 DEB now!
10-day predictions


NORAD ID: 15788
Int'l Code: 1978-026GT
Perigee: 837.4 km
Apogee: 1,014.0 km
Inclination: 98.9 °
Period: 103.4 minutes
Semi major axis: 7296 km
RCS: 0.005 m2 (small)
Launch date: March 5, 1978
Source: United States (US)
Launch site: AIR FORCE WESTERN TEST RANGE (AFWTR)

Note: This is SATELLITE DEBRIS
Your satellite tracking list
NUSAT-20 (GRACE)
Track 1 satellite(s)




NASA's NSSDC Master Catalog

Two Line Element Set (TLE):
1 15788U 78026GT  25199.32403493  .00000882  00000-0  67035-3 0  9998
2 15788  98.8893 121.4110 0120978  58.7716  65.6814 13.92880758156550
Source of the keplerian elements: AFSPC